Time,TemperatureF,DewpointF,PressureIn,WindDirection,WindDirectionDegrees,WindSpeedMPH,WindSpeedGustMPH,Humidity,HourlyPrecipIn,Conditions,Clouds,dailyrainin,SoftwareType,DateUTC
2013-05-15 00:01:00,65.1,53.0,30.28,SE,137,1.0,1.0,65,0.00,,,0.00,Wunderground v.1.13,2013-05-15 04:01:00,
2013-05-15 00:02:00,65.1,53.0,30.28,SE,137,0.0,1.0,65,0.00,,,0.00,Wunderground v.1.13,2013-05-15 04:02:00,
2013-05-15 00:08:00,65.2,53.1,30.29,South,175,0.0,0.0,65,0.00,,,0.00,Wunderground v.1.13,2013-05-15 04:08:00,
2013-05-15 00:09:00,65.2,53.1,30.29,South,175,0.0,0.0,65,0.00,,,0.00,Wunderground v.1.13,2013-05-15 04:09:00,
2013-05-15 00:12:00,65.1,53.0,30.28,South,175,0.0,0.0,65,0.00,,,0.00,Wunderground v.1.13,2013-05-15 04:12:00,
2013-05-15 00:17:00,64.9,52.8,30.29,South,175,0.0,0.0,65,0.00,,,0.00,Wunderground v.1.13,2013-05-15 04:17:00,
2013-05-15 00:22:00,64.8,53.2,30.29,South,175,0.0,0.0,66,0.00,,,0.00,Wunderground v.1.13,2013-05-15 04:22:00,
2013-05-15 00:27:00,64.6,53.0,30.29,South,175,0.0,0.0,66,0.00,,,0.00,Wunderground v.1.13,2013-05-15 04:27:00,
2013-05-15 00:33:00,64.5,52.9,30.29,South,175,0.0,0.0,66,0.00,,,0.00,Wunderground v.1.13,2013-05-15 04:33:00,
2013-05-15 00:38:00,64.4,53.2,30.29,South,175,0.0,0.0,67,0.00,,,0.00,Wunderground v.1.13,2013-05-15 04:38:00,
2013-05-15 00:43:00,64.3,53.5,30.29,South,175,1.0,1.0,68,0.00,,,0.00,Wunderground v.1.13,2013-05-15 04:43:00,
2013-05-15 00:49:00,64.2,53.0,30.29,South,175,0.0,0.0,67,0.00,,,0.00,Wunderground v.1.13,2013-05-15 04:49:00,
2013-05-15 00:54:00,64.1,53.3,30.29,South,175,0.0,0.0,68,0.00,,,0.00,Wunderground v.1.13,2013-05-15 04:54:00,
2013-05-15 01:00:00,63.9,53.1,30.29,South,175,0.0,0.0,68,0.00,,,0.00,Wunderground v.1.13,2013-05-15 05:00:00,
2013-05-15 01:05:00,63.8,53.4,30.29,South,175,0.0,0.0,69,0.00,,,0.00,Wunderground v.1.13,2013-05-15 05:05:00,
2013-05-15 01:11:00,63.6,53.2,30.28,South,175,0.0,0.0,69,0.00,,,0.00,Wunderground v.1.13,2013-05-15 05:11:00,
2013-05-15 01:16:00,63.5,53.5,30.28,South,175,0.0,0.0,70,0.00,,,0.00,Wunderground v.1.13,2013-05-15 05:16:00,
2013-05-15 01:22:00,63.3,53.3,30.28,South,175,0.0,0.0,70,0.00,,,0.00,Wunderground v.1.13,2013-05-15 05:22:00,
2013-05-15 01:28:00,63.3,53.3,30.28,South,181,1.0,1.0,70,0.00,,,0.00,Wunderground v.1.13,2013-05-15 05:28:00,
2013-05-15 01:33:00,63.4,53.4,30.28,South,181,0.0,0.0,70,0.00,,,0.00,Wunderground v.1.13,2013-05-15 05:33:00,
2013-05-15 01:39:00,63.4,53.4,30.28,South,181,0.0,0.0,70,0.00,,,0.00,Wunderground v.1.13,2013-05-15 05:39:00,
2013-05-15 01:44:00,63.2,53.3,30.28,South,181,0.0,0.0,70,0.00,,,0.00,Wunderground v.1.13,2013-05-15 05:44:00,
2013-05-15 01:50:00,63.1,53.5,30.28,South,181,0.0,0.0,71,0.00,,,0.00,Wunderground v.1.13,2013-05-15 05:50:00,
2013-05-15 01:55:00,63.0,53.4,30.28,South,181,0.0,0.0,71,0.00,,,0.00,Wunderground v.1.13,2013-05-15 05:55:00,
2013-05-15 02:01:00,63.0,53.4,30.28,South,181,0.0,0.0,71,0.00,,,0.00,Wunderground v.1.13,2013-05-15 06:01:00,
2013-05-15 02:06:00,63.1,53.5,30.28,South,181,0.0,0.0,71,0.00,,,0.00,Wunderground v.1.13,2013-05-15 06:06:00,
2013-05-15 02:11:00,63.1,53.5,30.28,South,181,0.0,0.0,71,0.00,,,0.00,Wunderground v.1.13,2013-05-15 06:11:00,
2013-05-15 02:16:00,63.1,53.5,30.28,South,181,0.0,0.0,71,0.00,,,0.00,Wunderground v.1.13,2013-05-15 06:16:00,
2013-05-15 02:21:00,62.9,53.7,30.28,South,181,0.0,0.0,72,0.00,,,0.00,Wunderground v.1.13,2013-05-15 06:21:00,
2013-05-15 02:26:00,62.9,53.7,30.28,South,181,0.0,0.0,72,0.00,,,0.00,Wunderground v.1.13,2013-05-15 06:26:00,
2013-05-15 02:31:00,62.8,53.6,30.28,South,181,0.0,0.0,72,0.00,,,0.00,Wunderground v.1.13,2013-05-15 06:31:00,
2013-05-15 02:36:00,62.8,53.6,30.28,South,181,0.0,0.0,72,0.00,,,0.00,Wunderground v.1.13,2013-05-15 06:36:00,
2013-05-15 02:41:00,62.7,53.5,30.28,South,181,0.0,0.0,72,0.00,,,0.00,Wunderground v.1.13,2013-05-15 06:41:00,
2013-05-15 02:46:00,62.7,53.5,30.28,South,181,0.0,0.0,72,0.00,,,0.00,Wunderground v.1.13,2013-05-15 06:46:00,
2013-05-15 02:51:00,62.6,53.4,30.28,South,181,0.0,0.0,72,0.00,,,0.00,Wunderground v.1.13,2013-05-15 06:51:00,
2013-05-15 02:56:00,62.5,53.7,30.28,South,181,0.0,0.0,73,0.00,,,0.00,Wunderground v.1.13,2013-05-15 06:56:00,
2013-05-15 03:01:00,62.5,53.7,30.28,South,181,0.0,0.0,73,0.00,,,0.00,Wunderground v.1.13,2013-05-15 07:01:00,
2013-05-15 03:06:00,62.4,53.6,30.28,South,181,0.0,0.0,73,0.00,,,0.00,Wunderground v.1.13,2013-05-15 07:06:00,
2013-05-15 03:11:00,62.3,53.5,30.28,South,181,0.0,0.0,73,0.00,,,0.00,Wunderground v.1.13,2013-05-15 07:11:00,
2013-05-15 03:16:00,62.3,53.5,30.27,South,181,0.0,0.0,73,0.00,,,0.00,Wunderground v.1.13,2013-05-15 07:16:00,
2013-05-15 03:21:00,62.3,53.5,30.27,South,181,0.0,0.0,73,0.00,,,0.00,Wunderground v.1.13,2013-05-15 07:21:00,
2013-05-15 03:26:00,62.2,53.4,30.27,South,181,0.0,0.0,73,0.00,,,0.00,Wunderground v.1.13,2013-05-15 07:26:00,
2013-05-15 03:32:00,62.2,53.4,30.27,South,181,0.0,0.0,73,0.00,,,0.00,Wunderground v.1.13,2013-05-15 07:32:00,
2013-05-15 03:37:00,62.1,53.3,30.27,South,181,0.0,0.0,73,0.00,,,0.00,Wunderground v.1.13,2013-05-15 07:37:00,
2013-05-15 03:42:00,62.1,53.7,30.27,South,181,0.0,0.0,74,0.00,,,0.00,Wunderground v.1.13,2013-05-15 07:42:00,
2013-05-15 03:47:00,62.0,53.6,30.27,South,181,0.0,0.0,74,0.00,,,0.00,Wunderground v.1.13,2013-05-15 07:47:00,
2013-05-15 03:52:00,61.9,53.5,30.27,South,181,0.0,0.0,74,0.00,,,0.00,Wunderground v.1.13,2013-05-15 07:52:00,
2013-05-15 03:57:00,61.7,53.7,30.27,South,181,0.0,0.0,75,0.00,,,0.00,Wunderground v.1.13,2013-05-15 07:57:00,
2013-05-15 04:02:00,61.5,53.5,30.27,South,181,0.0,0.0,75,0.00,,,0.00,Wunderground v.1.13,2013-05-15 08:02:00,
2013-05-15 04:07:00,61.3,53.3,30.27,South,181,0.0,0.0,75,0.00,,,0.00,Wunderground v.1.13,2013-05-15 08:07:00,
2013-05-15 04:12:00,61.1,53.5,30.27,South,181,0.0,0.0,76,0.00,,,0.00,Wunderground v.1.13,2013-05-15 08:12:00,
2013-05-15 04:17:00,61.0,53.4,30.27,South,181,0.0,0.0,76,0.00,,,0.00,Wunderground v.1.13,2013-05-15 08:17:00,
2013-05-15 04:22:00,61.0,53.4,30.27,South,181,0.0,0.0,76,0.00,,,0.00,Wunderground v.1.13,2013-05-15 08:22:00,
2013-05-15 04:27:00,61.1,53.5,30.27,South,181,0.0,0.0,76,0.00,,,0.00,Wunderground v.1.13,2013-05-15 08:27:00,
2013-05-15 04:32:00,61.3,53.7,30.27,South,181,0.0,0.0,76,0.00,,,0.00,Wunderground v.1.13,2013-05-15 08:32:00,
2013-05-15 04:37:00,61.4,53.4,30.27,South,181,0.0,0.0,75,0.00,,,0.00,Wunderground v.1.13,2013-05-15 08:37:00,
2013-05-15 04:42:00,61.7,53.7,30.27,South,181,0.0,0.0,75,0.00,,,0.00,Wunderground v.1.13,2013-05-15 08:42:00,
2013-05-15 04:47:00,61.8,53.8,30.27,South,181,0.0,0.0,75,0.00,,,0.00,Wunderground v.1.13,2013-05-15 08:47:00,
2013-05-15 04:52:00,61.9,53.9,30.27,South,181,0.0,0.0,75,0.00,,,0.00,Wunderground v.1.13,2013-05-15 08:52:00,
2013-05-15 04:57:00,61.7,53.7,30.27,South,181,0.0,0.0,75,0.00,,,0.00,Wunderground v.1.13,2013-05-15 08:57:00,
2013-05-15 05:02:00,61.4,53.4,30.27,South,181,0.0,0.0,75,0.00,,,0.00,Wunderground v.1.13,2013-05-15 09:02:00,
2013-05-15 05:07:00,61.3,53.7,30.27,South,181,0.0,0.0,76,0.00,,,0.00,Wunderground v.1.13,2013-05-15 09:07:00,
2013-05-15 05:12:00,61.2,53.6,30.27,South,181,0.0,0.0,76,0.00,,,0.00,Wunderground v.1.13,2013-05-15 09:12:00,
2013-05-15 05:17:00,61.2,53.6,30.27,South,181,0.0,0.0,76,0.00,,,0.00,Wunderground v.1.13,2013-05-15 09:17:00,
2013-05-15 05:22:00,61.2,53.6,30.27,South,181,0.0,0.0,76,0.00,,,0.00,Wunderground v.1.13,2013-05-15 09:22:00,
2013-05-15 05:27:00,61.3,53.7,30.28,South,181,0.0,0.0,76,0.00,,,0.00,Wunderground v.1.13,2013-05-15 09:27:00,
2013-05-15 05:32:00,61.4,53.4,30.28,South,181,0.0,0.0,75,0.00,,,0.00,Wunderground v.1.13,2013-05-15 09:32:00,
2013-05-15 05:37:00,61.5,53.5,30.28,South,181,0.0,0.0,75,0.00,,,0.00,Wunderground v.1.13,2013-05-15 09:37:00,
2013-05-15 05:42:00,61.6,53.6,30.28,South,181,0.0,0.0,75,0.00,,,0.00,Wunderground v.1.13,2013-05-15 09:42:00,
2013-05-15 05:47:00,61.6,53.6,30.28,South,181,0.0,0.0,75,0.00,,,0.00,Wunderground v.1.13,2013-05-15 09:47:00,
2013-05-15 05:53:00,61.6,53.6,30.28,South,181,0.0,0.0,75,0.00,,,0.00,Wunderground v.1.13,2013-05-15 09:53:00,
2013-05-15 05:58:00,61.5,53.5,30.28,South,181,0.0,0.0,75,0.00,,,0.00,Wunderground v.1.13,2013-05-15 09:58:00,
2013-05-15 06:03:00,61.4,53.4,30.28,South,181,0.0,0.0,75,0.00,,,0.00,Wunderground v.1.13,2013-05-15 10:03:00,
2013-05-15 06:08:00,61.4,53.4,30.28,South,181,0.0,0.0,75,0.00,,,0.00,Wunderground v.1.13,2013-05-15 10:08:00,
2013-05-15 06:13:00,61.5,53.5,30.28,South,181,0.0,0.0,75,0.00,,,0.00,Wunderground v.1.13,2013-05-15 10:13:00,
2013-05-15 06:18:00,61.4,53.4,30.28,South,181,0.0,1.0,75,0.00,,,0.00,Wunderground v.1.13,2013-05-15 10:18:00,
2013-05-15 06:23:00,61.3,53.3,30.29,South,181,0.0,0.0,75,0.00,,,0.00,Wunderground v.1.13,2013-05-15 10:23:00,
2013-05-15 06:28:00,61.3,53.3,30.29,South,181,0.0,0.0,75,0.00,,,0.00,Wunderground v.1.13,2013-05-15 10:28:00,
2013-05-15 06:33:00,61.2,53.6,30.29,South,181,0.0,0.0,76,0.00,,,0.00,Wunderground v.1.13,2013-05-15 10:33:00,
2013-05-15 06:38:00,61.2,53.6,30.29,South,181,0.0,0.0,76,0.00,,,0.00,Wunderground v.1.13,2013-05-15 10:38:00,
2013-05-15 06:43:00,61.1,53.5,30.29,South,181,0.0,0.0,76,0.00,,,0.00,Wunderground v.1.13,2013-05-15 10:43:00,
2013-05-15 06:48:00,61.1,53.5,30.29,South,181,0.0,0.0,76,0.00,,,0.00,Wunderground v.1.13,2013-05-15 10:48:00,
2013-05-15 06:53:00,61.0,53.4,30.29,South,181,0.0,0.0,76,0.00,,,0.00,Wunderground v.1.13,2013-05-15 10:53:00,
2013-05-15 06:58:00,61.0,53.4,30.29,South,181,0.0,0.0,76,0.00,,,0.00,Wunderground v.1.13,2013-05-15 10:58:00,
2013-05-15 07:03:00,61.0,53.4,30.29,South,181,0.0,0.0,76,0.00,,,0.00,Wunderground v.1.13,2013-05-15 11:03:00,
2013-05-15 07:09:00,61.0,53.7,30.29,South,181,0.0,0.0,77,0.00,,,0.00,Wunderground v.1.13,2013-05-15 11:09:00,
2013-05-15 07:14:00,60.9,53.6,30.29,South,181,0.0,0.0,77,0.00,,,0.00,Wunderground v.1.13,2013-05-15 11:14:00,
2013-05-15 07:19:00,60.8,53.5,30.30,South,181,0.0,0.0,77,0.00,,,0.00,Wunderground v.1.13,2013-05-15 11:19:00,
2013-05-15 07:25:00,60.7,53.4,30.30,South,181,0.0,0.0,77,0.00,,,0.00,Wunderground v.1.13,2013-05-15 11:25:00,
2013-05-15 07:30:00,60.7,53.8,30.30,South,181,0.0,0.0,78,0.00,,,0.00,Wunderground v.1.13,2013-05-15 11:30:00,
2013-05-15 07:36:00,60.7,53.8,30.30,South,181,0.0,0.0,78,0.00,,,0.00,Wunderground v.1.13,2013-05-15 11:36:00,
2013-05-15 07:41:00,60.8,53.5,30.30,South,181,0.0,0.0,77,0.00,,,0.00,Wunderground v.1.13,2013-05-15 11:41:00,
2013-05-15 07:46:00,61.0,53.7,30.30,South,181,0.0,0.0,77,0.00,,,0.00,Wunderground v.1.13,2013-05-15 11:46:00,
2013-05-15 07:51:00,61.1,54.2,30.30,South,181,0.0,0.0,78,0.00,,,0.00,Wunderground v.1.13,2013-05-15 11:51:00,
2013-05-15 07:56:00,61.2,54.3,30.30,South,181,0.0,0.0,78,0.00,,,0.00,Wunderground v.1.13,2013-05-15 11:56:00,
2013-05-15 08:02:00,61.3,54.0,30.30,South,181,0.0,0.0,77,0.00,,,0.00,Wunderground v.1.13,2013-05-15 12:02:00,
2013-05-15 08:07:00,61.5,54.6,30.30,South,181,0.0,0.0,78,0.00,,,0.00,Wunderground v.1.13,2013-05-15 12:07:00,
2013-05-15 08:13:00,61.6,54.7,30.30,South,181,0.0,0.0,78,0.00,,,0.00,Wunderground v.1.13,2013-05-15 12:13:00,
2013-05-15 08:18:00,61.7,54.1,30.30,South,181,0.0,1.0,76,0.00,,,0.00,Wunderground v.1.13,2013-05-15 12:18:00,
2013-05-15 08:23:00,61.8,54.2,30.31,South,181,0.0,0.0,76,0.00,,,0.00,Wunderground v.1.13,2013-05-15 12:23:00,
2013-05-15 08:28:00,61.8,54.5,30.31,South,181,0.0,0.0,77,0.00,,,0.00,Wunderground v.1.13,2013-05-15 12:28:00,
2013-05-15 08:33:00,61.8,54.5,30.31,South,181,0.0,0.0,77,0.00,,,0.00,Wunderground v.1.13,2013-05-15 12:33:00,
2013-05-15 08:38:00,61.8,54.2,30.31,South,181,0.0,0.0,76,0.00,,,0.00,Wunderground v.1.13,2013-05-15 12:38:00,
2013-05-15 08:44:00,61.8,54.5,30.31,South,181,0.0,0.0,77,0.00,,,0.00,Wunderground v.1.13,2013-05-15 12:44:00,
2013-05-15 08:49:00,62.0,55.1,30.31,South,181,0.0,0.0,78,0.00,,,0.00,Wunderground v.1.13,2013-05-15 12:49:00,
2013-05-15 08:54:00,62.1,54.4,30.31,South,181,0.0,0.0,76,0.00,,,0.00,Wunderground v.1.13,2013-05-15 12:54:00,
2013-05-15 09:00:00,62.2,54.9,30.31,South,181,0.0,0.0,77,0.00,,,0.00,Wunderground v.1.13,2013-05-15 13:00:00,
2013-05-15 09:05:00,62.5,54.8,30.31,South,181,0.0,0.0,76,0.00,,,0.00,Wunderground v.1.13,2013-05-15 13:05:00,
2013-05-15 09:11:00,62.8,55.1,30.31,South,181,0.0,0.0,76,0.00,,,0.00,Wunderground v.1.13,2013-05-15 13:11:00,
2013-05-15 09:16:00,63.0,54.9,30.31,South,181,0.0,0.0,75,0.00,,,0.00,Wunderground v.1.13,2013-05-15 13:16:00,
2013-05-15 09:21:00,63.2,55.5,30.31,South,181,0.0,0.0,76,0.00,,,0.00,Wunderground v.1.13,2013-05-15 13:21:00,
2013-05-15 09:26:00,63.4,55.7,30.31,South,181,0.0,0.0,76,0.00,,,0.00,Wunderground v.1.13,2013-05-15 13:26:00,
2013-05-15 09:31:00,63.5,54.7,30.31,South,181,0.0,0.0,73,0.00,,,0.00,Wunderground v.1.13,2013-05-15 13:31:00,
2013-05-15 09:37:00,63.7,55.3,30.31,South,181,0.0,0.0,74,0.00,,,0.00,Wunderground v.1.13,2013-05-15 13:37:00,
2013-05-15 09:42:00,64.0,55.5,30.31,South,181,0.0,0.0,74,0.00,,,0.00,Wunderground v.1.13,2013-05-15 13:42:00,
2013-05-15 09:47:00,64.2,55.7,30.31,South,181,0.0,0.0,74,0.00,,,0.00,Wunderground v.1.13,2013-05-15 13:47:00,
2013-05-15 09:52:00,64.4,55.9,30.31,South,181,0.0,0.0,74,0.00,,,0.00,Wunderground v.1.13,2013-05-15 13:52:00,
2013-05-15 09:57:00,64.7,55.8,30.31,South,181,0.0,0.0,73,0.00,,,0.00,Wunderground v.1.13,2013-05-15 13:57:00,
2013-05-15 10:02:00,65.1,55.8,30.31,NE,39,0.0,1.0,72,0.00,,,0.00,Wunderground v.1.13,2013-05-15 14:02:00,
2013-05-15 10:07:00,65.6,56.3,30.31,NE,39,0.0,1.0,72,0.00,,,0.00,Wunderground v.1.13,2013-05-15 14:07:00,
2013-05-15 10:12:00,66.1,56.0,30.31,NNW,335,1.0,1.0,70,0.00,,,0.00,Wunderground v.1.13,2013-05-15 14:12:00,
2013-05-15 10:18:00,66.5,56.0,30.31,NNW,336,0.0,1.0,69,0.00,,,0.00,Wunderground v.1.13,2013-05-15 14:18:00,
2013-05-15 10:23:00,66.8,55.9,30.31,NNW,336,0.0,0.0,68,0.00,,,0.00,Wunderground v.1.13,2013-05-15 14:23:00,
2013-05-15 10:28:00,67.2,55.9,30.31,NNW,333,0.0,1.0,67,0.00,,,0.00,Wunderground v.1.13,2013-05-15 14:28:00,
2013-05-15 10:33:00,67.5,56.2,30.30,NNW,333,0.0,1.0,67,0.00,,,0.00,Wunderground v.1.13,2013-05-15 14:33:00,
2013-05-15 10:38:00,67.9,55.7,30.30,North,9,0.0,2.0,65,0.00,,,0.00,Wunderground v.1.13,2013-05-15 14:38:00,
2013-05-15 10:43:00,68.4,55.7,30.30,NNE,23,0.0,1.0,64,0.00,,,0.00,Wunderground v.1.13,2013-05-15 14:43:00,
2013-05-15 10:48:00,68.8,55.2,30.30,NNE,24,0.0,1.0,62,0.00,,,0.00,Wunderground v.1.13,2013-05-15 14:48:00,
2013-05-15 10:53:00,69.3,55.3,30.30,NNE,16,0.0,3.0,61,0.00,,,0.00,Wunderground v.1.13,2013-05-15 14:53:00,
2013-05-15 10:58:00,69.7,55.6,30.29,NNE,16,0.0,3.0,61,0.00,,,0.00,Wunderground v.1.13,2013-05-15 14:58:00,
2013-05-15 11:03:00,70.1,55.1,30.29,NNE,32,0.0,3.0,59,0.00,,,0.00,Wunderground v.1.13,2013-05-15 15:03:00,
2013-05-15 11:08:00,70.4,55.8,30.29,North,5,2.0,3.0,60,0.00,,,0.00,Wunderground v.1.13,2013-05-15 15:08:00,
2013-05-15 11:14:00,70.8,55.8,30.29,NNE,19,0.0,3.0,59,0.00,,,0.00,Wunderground v.1.13,2013-05-15 15:14:00,
2013-05-15 11:19:00,71.4,56.3,30.28,NNW,328,0.0,3.0,59,0.00,,,0.00,Wunderground v.1.13,2013-05-15 15:19:00,
2013-05-15 11:24:00,72.0,55.9,30.28,NNW,346,0.0,2.0,57,0.00,,,0.00,Wunderground v.1.13,2013-05-15 15:24:00,
2013-05-15 11:30:00,72.4,55.3,30.28,East,84,0.0,0.0,55,0.00,,,0.00,Wunderground v.1.13,2013-05-15 15:30:00,
2013-05-15 11:35:00,72.7,55.6,30.28,NE,40,0.0,0.0,55,0.00,,,0.00,Wunderground v.1.13,2013-05-15 15:35:00,
2013-05-15 11:40:00,73.1,56.0,30.28,NE,44,1.0,1.0,55,0.00,,,0.00,Wunderground v.1.13,2013-05-15 15:40:00,
2013-05-15 11:45:00,73.5,56.3,30.27,NE,43,0.0,0.0,55,0.00,,,0.00,Wunderground v.1.13,2013-05-15 15:45:00,
2013-05-15 11:50:00,73.6,55.4,30.27,NNE,20,0.0,0.0,53,0.00,,,0.00,Wunderground v.1.13,2013-05-15 15:50:00,
2013-05-15 11:55:00,73.8,54.5,30.27,NNE,21,1.0,1.0,51,0.00,,,0.00,Wunderground v.1.13,2013-05-15 15:55:00,
2013-05-15 12:00:00,73.9,54.6,30.27,NE,34,0.0,1.0,51,0.00,,,0.00,Wunderground v.1.13,2013-05-15 16:00:00,
2013-05-15 12:05:00,74.1,54.3,30.27,West,269,1.0,1.0,50,0.00,,,0.00,Wunderground v.1.13,2013-05-15 16:05:00,
2013-05-15 12:10:00,74.5,54.1,30.27,East,79,0.0,1.0,49,0.00,,,0.00,Wunderground v.1.13,2013-05-15 16:10:00,
2013-05-15 12:16:00,74.8,54.4,30.27,NNE,24,2.0,3.0,49,0.00,,,0.00,Wunderground v.1.13,2013-05-15 16:16:00,
2013-05-15 12:21:00,75.3,54.3,30.26,NNE,22,0.0,1.0,48,0.00,,,0.00,Wunderground v.1.13,2013-05-15 16:21:00,
2013-05-15 12:26:00,75.6,54.5,30.26,WNW,292,3.0,3.0,48,0.00,,,0.00,Wunderground v.1.13,2013-05-15 16:26:00,
2013-05-15 12:31:00,76.0,54.3,30.26,NNE,29,2.0,2.0,47,0.00,,,0.00,Wunderground v.1.13,2013-05-15 16:31:00,
2013-05-15 12:37:00,76.4,54.1,30.25,NNE,13,0.0,2.0,46,0.00,,,0.00,Wunderground v.1.13,2013-05-15 16:37:00,
2013-05-15 12:42:00,76.7,53.1,30.25,NNW,343,1.0,3.0,44,0.00,,,0.00,Wunderground v.1.13,2013-05-15 16:42:00,
2013-05-15 12:47:00,76.8,53.8,30.25,NNE,23,1.0,1.0,45,0.00,,,0.00,Wunderground v.1.13,2013-05-15 16:47:00,
2013-05-15 12:52:00,77.2,54.8,30.25,NNE,21,0.0,2.0,46,0.00,,,0.00,Wunderground v.1.13,2013-05-15 16:52:00,
2013-05-15 12:57:00,77.4,53.8,30.25,West,275,1.0,5.0,44,0.00,,,0.00,Wunderground v.1.13,2013-05-15 16:57:00,
2013-05-15 13:02:00,77.6,54.0,30.25,North,5,1.0,3.0,44,0.00,,,0.00,Wunderground v.1.13,2013-05-15 17:02:00,
2013-05-15 13:07:00,77.7,52.1,30.24,NNW,327,0.0,2.0,41,0.00,,,0.00,Wunderground v.1.13,2013-05-15 17:07:00,
2013-05-15 13:12:00,78.0,56.1,30.24,NW,325,0.0,2.0,47,0.00,,,0.00,Wunderground v.1.13,2013-05-15 17:12:00,
2013-05-15 13:18:00,78.4,52.1,30.24,NNE,30,1.0,3.0,40,0.00,,,0.00,Wunderground v.1.13,2013-05-15 17:18:00,
2013-05-15 13:23:00,78.5,52.2,30.24,NNE,28,0.0,2.0,40,0.00,,,0.00,Wunderground v.1.13,2013-05-15 17:23:00,
2013-05-15 13:28:00,78.7,53.0,30.24,NNW,337,0.0,2.0,41,0.00,,,0.00,Wunderground v.1.13,2013-05-15 17:28:00,
2013-05-15 13:33:00,79.4,52.3,30.24,NNW,337,1.0,1.0,39,0.00,,,0.00,Wunderground v.1.13,2013-05-15 17:33:00,
2013-05-15 13:38:00,79.5,50.2,30.24,NNW,340,1.0,2.0,36,0.00,,,0.00,Wunderground v.1.13,2013-05-15 17:38:00,
2013-05-15 13:43:00,79.4,53.0,30.24,NE,39,0.0,2.0,40,0.00,,,0.00,Wunderground v.1.13,2013-05-15 17:43:00,
2013-05-15 13:48:00,80.0,52.8,30.23,NNE,26,0.0,3.0,39,0.00,,,0.00,Wunderground v.1.13,2013-05-15 17:48:00,
2013-05-15 13:54:00,80.5,51.1,30.23,NNE,20,0.0,3.0,36,0.00,,,0.00,Wunderground v.1.13,2013-05-15 17:54:00,
2013-05-15 13:59:00,80.8,51.4,30.23,NE,42,0.0,2.0,36,0.00,,,0.00,Wunderground v.1.13,2013-05-15 17:59:00,
2013-05-15 14:04:00,81.1,55.8,30.23,NE,40,0.0,1.0,42,0.00,,,0.00,Wunderground v.1.13,2013-05-15 18:04:00,
2013-05-15 14:09:00,81.6,52.1,30.23,SE,139,0.0,2.0,36,0.00,,,0.00,Wunderground v.1.13,2013-05-15 18:09:00,
2013-05-15 14:14:00,81.9,52.3,30.23,NNE,17,1.0,2.0,36,0.00,,,0.00,Wunderground v.1.13,2013-05-15 18:14:00,
2013-05-15 14:19:00,81.9,57.8,30.22,West,275,2.0,2.0,44,0.00,,,0.00,Wunderground v.1.13,2013-05-15 18:19:00,
2013-05-15 14:25:00,81.9,53.8,30.22,WNW,287,0.0,0.0,38,0.00,,,0.00,Wunderground v.1.13,2013-05-15 18:25:00,
2013-05-15 14:30:00,82.3,54.2,30.22,SE,142,1.0,1.0,38,0.00,,,0.00,Wunderground v.1.13,2013-05-15 18:30:00,
2013-05-15 14:36:00,82.9,53.2,30.22,SSE,167,0.0,2.0,36,0.00,,,0.00,Wunderground v.1.13,2013-05-15 18:36:00,
2013-05-15 14:41:00,82.7,54.5,30.21,NE,42,0.0,1.0,38,0.00,,,0.00,Wunderground v.1.13,2013-05-15 18:41:00,
2013-05-15 14:46:00,83.0,53.3,30.21,WNW,288,0.0,1.0,36,0.00,,,0.00,Wunderground v.1.13,2013-05-15 18:46:00,
2013-05-15 14:52:00,83.0,54.0,30.21,WNW,294,0.0,1.0,37,0.00,,,0.00,Wunderground v.1.13,2013-05-15 18:52:00,
2013-05-15 14:57:00,83.4,53.6,30.21,South,169,0.0,2.0,36,0.00,,,0.00,Wunderground v.1.13,2013-05-15 18:57:00,
2013-05-15 15:02:00,83.4,53.6,30.21,NNE,32,0.0,3.0,36,0.00,,,0.00,Wunderground v.1.13,2013-05-15 19:02:00,
2013-05-15 15:07:00,83.5,55.9,30.20,North,360,0.0,1.0,39,0.00,,,0.00,Wunderground v.1.13,2013-05-15 19:07:00,
2013-05-15 15:13:00,83.8,54.0,30.20,NE,34,2.0,2.0,36,0.00,,,0.00,Wunderground v.1.13,2013-05-15 19:13:00,
2013-05-15 15:19:00,83.7,53.1,30.20,South,173,0.0,3.0,35,0.00,,,0.00,Wunderground v.1.13,2013-05-15 19:19:00,
2013-05-15 15:24:00,83.8,54.0,30.19,West,281,0.0,1.0,36,0.00,,,0.00,Wunderground v.1.13,2013-05-15 19:24:00,
2013-05-15 15:29:00,83.7,53.9,30.19,North,5,0.0,1.0,36,0.00,,,0.00,Wunderground v.1.13,2013-05-15 19:29:00,
2013-05-15 15:34:00,83.5,53.0,30.19,North,5,0.0,2.0,35,0.00,,,0.00,Wunderground v.1.13,2013-05-15 19:34:00,
2013-05-15 15:39:00,83.4,54.4,30.19,North,5,0.0,1.0,37,0.00,,,0.00,Wunderground v.1.13,2013-05-15 19:39:00,
2013-05-15 15:45:00,83.3,51.2,30.19,NE,38,0.0,0.0,33,0.00,,,0.00,Wunderground v.1.13,2013-05-15 19:45:00,
2013-05-15 15:50:00,83.3,52.0,30.19,NE,36,0.0,0.0,34,0.00,,,0.00,Wunderground v.1.13,2013-05-15 19:50:00,
2013-05-15 15:55:00,83.5,50.5,30.18,NE,38,0.0,1.0,32,0.00,,,0.00,Wunderground v.1.13,2013-05-15 19:55:00,
2013-05-15 16:00:00,83.5,52.2,30.19,SSE,161,1.0,2.0,34,0.00,,,0.00,Wunderground v.1.13,2013-05-15 20:00:00,
2013-05-15 16:06:00,83.6,48.0,30.18,WNW,285,0.0,0.0,29,0.00,,,0.00,Wunderground v.1.13,2013-05-15 20:06:00,
2013-05-15 16:11:00,83.4,47.8,30.18,NNW,334,0.0,0.0,29,0.00,,,0.00,Wunderground v.1.13,2013-05-15 20:11:00,
2013-05-15 16:16:00,83.2,46.7,30.18,NE,53,0.0,1.0,28,0.00,,,0.00,Wunderground v.1.13,2013-05-15 20:16:00,
2013-05-15 16:21:00,83.0,49.2,30.17,NNW,342,0.0,1.0,31,0.00,,,0.00,Wunderground v.1.13,2013-05-15 20:21:00,
2013-05-15 16:26:00,83.2,49.4,30.17,WNW,292,0.0,3.0,31,0.00,,,0.00,Wunderground v.1.13,2013-05-15 20:26:00,
2013-05-15 16:31:00,83.2,49.4,30.17,South,187,0.0,0.0,31,0.00,,,0.00,Wunderground v.1.13,2013-05-15 20:31:00,
2013-05-15 16:36:00,83.1,50.2,30.17,North,10,0.0,1.0,32,0.00,,,0.00,Wunderground v.1.13,2013-05-15 20:36:00,
2013-05-15 16:41:00,83.2,51.1,30.17,North,9,0.0,1.0,33,0.00,,,0.00,Wunderground v.1.13,2013-05-15 20:41:00,
2013-05-15 16:47:00,83.5,52.2,30.16,NNW,345,0.0,0.0,34,0.00,,,0.00,Wunderground v.1.13,2013-05-15 20:47:00,
2013-05-15 16:52:00,83.6,51.5,30.16,NNW,345,0.0,1.0,33,0.00,,,0.00,Wunderground v.1.13,2013-05-15 20:52:00,
2013-05-15 16:57:00,83.6,53.1,30.16,WNW,288,0.0,0.0,35,0.00,,,0.00,Wunderground v.1.13,2013-05-15 20:57:00,
2013-05-15 17:02:00,83.6,54.6,30.16,NNE,20,0.0,1.0,37,0.00,,,0.00,Wunderground v.1.13,2013-05-15 21:02:00,
2013-05-15 17:07:00,83.5,52.2,30.16,NE,34,1.0,1.0,34,0.00,,,0.00,Wunderground v.1.13,2013-05-15 21:07:00,
2013-05-15 17:12:00,83.2,52.7,30.16,North,351,0.0,0.0,35,0.00,,,0.00,Wunderground v.1.13,2013-05-15 21:12:00,
2013-05-15 17:17:00,83.2,55.0,30.16,North,351,0.0,0.0,38,0.00,,,0.00,Wunderground v.1.13,2013-05-15 21:17:00,
2013-05-15 17:22:00,83.3,52.8,30.16,North,360,0.0,1.0,35,0.00,,,0.00,Wunderground v.1.13,2013-05-15 21:22:00,
2013-05-15 17:28:00,83.0,53.3,30.15,North,360,0.0,1.0,36,0.00,,,0.00,Wunderground v.1.13,2013-05-15 21:28:00,
2013-05-15 17:33:00,82.9,53.2,30.15,North,360,0.0,1.0,36,0.00,,,0.00,Wunderground v.1.13,2013-05-15 21:33:00,
2013-05-15 17:38:00,82.7,53.0,30.15,North,5,0.0,1.0,36,0.00,,,0.00,Wunderground v.1.13,2013-05-15 21:38:00,
2013-05-15 17:43:00,82.7,52.3,30.15,North,5,0.0,1.0,35,0.00,,,0.00,Wunderground v.1.13,2013-05-15 21:43:00,
2013-05-15 17:49:00,82.6,52.2,30.15,ENE,74,0.0,2.0,35,0.00,,,0.00,Wunderground v.1.13,2013-05-15 21:49:00,
2013-05-15 17:54:00,82.5,51.3,30.15,WNW,286,0.0,1.0,34,0.00,,,0.00,Wunderground v.1.13,2013-05-15 21:54:00,
2013-05-15 17:59:00,82.5,52.9,30.15,WNW,286,0.0,0.0,36,0.00,,,0.00,Wunderground v.1.13,2013-05-15 21:59:00,
2013-05-15 18:05:00,82.3,54.2,30.15,WNW,286,0.0,0.0,38,0.00,,,0.00,Wunderground v.1.13,2013-05-15 22:05:00,
2013-05-15 18:10:00,82.1,52.5,30.15,NNE,29,1.0,1.0,36,0.00,,,0.00,Wunderground v.1.13,2013-05-15 22:10:00,
2013-05-15 18:15:00,81.8,52.2,30.15,NE,36,0.0,1.0,36,0.00,,,0.00,Wunderground v.1.13,2013-05-15 22:15:00,
2013-05-15 18:21:00,81.5,52.0,30.14,South,189,0.0,1.0,36,0.00,,,0.00,Wunderground v.1.13,2013-05-15 22:21:00,
2013-05-15 18:26:00,81.4,53.4,30.14,NE,50,0.0,0.0,38,0.00,,,0.00,Wunderground v.1.13,2013-05-15 22:26:00,
2013-05-15 18:31:00,81.2,52.4,30.14,NE,50,0.0,1.0,37,0.00,,,0.00,Wunderground v.1.13,2013-05-15 22:31:00,
2013-05-15 18:37:00,81.0,52.3,30.14,NE,47,0.0,2.0,37,0.00,,,0.00,Wunderground v.1.13,2013-05-15 22:37:00,
2013-05-15 18:43:00,80.8,52.1,30.14,NE,47,0.0,2.0,37,0.00,,,0.00,Wunderground v.1.13,2013-05-15 22:43:00,
2013-05-15 18:48:00,80.7,53.4,30.14,NE,47,0.0,0.0,39,0.00,,,0.00,Wunderground v.1.13,2013-05-15 22:48:00,
2013-05-15 18:53:00,80.7,53.4,30.14,NNE,30,0.0,2.0,39,0.00,,,0.00,Wunderground v.1.13,2013-05-15 22:53:00,
2013-05-15 18:58:00,80.5,52.6,30.14,North,360,0.0,1.0,38,0.00,,,0.00,Wunderground v.1.13,2013-05-15 22:58:00,
2013-05-15 19:03:00,80.2,52.3,30.14,NE,34,0.0,1.0,38,0.00,,,0.00,Wunderground v.1.13,2013-05-15 23:03:00,
2013-05-15 19:09:00,80.3,52.4,30.14,NNE,33,0.0,0.0,38,0.00,,,0.00,Wunderground v.1.13,2013-05-15 23:09:00,
2013-05-15 19:14:00,80.1,51.5,30.14,SSE,157,0.0,3.0,37,0.00,,,0.00,Wunderground v.1.13,2013-05-15 23:14:00,
2013-05-15 19:19:00,79.9,52.7,30.14,SSE,157,0.0,1.0,39,0.00,,,0.00,Wunderground v.1.13,2013-05-15 23:19:00,
2013-05-15 19:24:00,79.7,50.4,30.15,SSE,156,0.0,0.0,36,0.00,,,0.00,Wunderground v.1.13,2013-05-15 23:24:00,
2013-05-15 19:29:00,79.4,50.9,30.15,SSE,168,0.0,2.0,37,0.00,,,0.00,Wunderground v.1.13,2013-05-15 23:29:00,
2013-05-15 19:34:00,79.2,51.4,30.15,SW,222,0.0,1.0,38,0.00,,,0.00,Wunderground v.1.13,2013-05-15 23:34:00,
2013-05-15 19:40:00,79.2,50.7,30.15,South,173,0.0,0.0,37,0.00,,,0.00,Wunderground v.1.13,2013-05-15 23:40:00,
2013-05-15 19:45:00,79.1,51.3,30.15,SSE,149,0.0,0.0,38,0.00,,,0.00,Wunderground v.1.13,2013-05-15 23:45:00,
2013-05-15 19:50:00,78.9,51.1,30.15,SSE,149,0.0,0.0,38,0.00,,,0.00,Wunderground v.1.13,2013-05-15 23:50:00,
2013-05-15 19:56:00,78.4,52.1,30.15,SSE,149,0.0,0.0,40,0.00,,,0.00,Wunderground v.1.13,2013-05-15 23:56:00,
2013-05-15 20:01:00,77.7,51.5,30.15,SSE,148,0.0,0.0,40,0.00,,,0.00,Wunderground v.1.13,2013-05-16 00:01:00,
2013-05-15 20:06:00,77.1,52.2,30.15,SE,145,0.0,0.0,42,0.00,,,0.00,Wunderground v.1.13,2013-05-16 00:06:00,
2013-05-15 20:12:00,76.5,53.0,30.15,North,355,0.0,1.0,44,0.00,,,0.00,Wunderground v.1.13,2013-05-16 00:12:00,
2013-05-15 20:17:00,76.0,53.1,30.15,North,355,0.0,0.0,45,0.00,,,0.00,Wunderground v.1.13,2013-05-16 00:17:00,
2013-05-15 20:22:00,75.5,52.7,30.15,North,355,0.0,0.0,45,0.00,,,0.00,Wunderground v.1.13,2013-05-16 00:22:00,
2013-05-15 20:27:00,75.1,52.9,30.15,North,355,0.0,0.0,46,0.00,,,0.00,Wunderground v.1.13,2013-05-16 00:27:00,
2013-05-15 20:33:00,74.7,53.1,30.15,North,355,0.0,0.0,47,0.00,,,0.00,Wunderground v.1.13,2013-05-16 00:33:00,
2013-05-15 20:38:00,74.3,53.3,30.15,North,355,0.0,0.0,48,0.00,,,0.00,Wunderground v.1.13,2013-05-16 00:38:00,
2013-05-15 20:43:00,73.9,53.0,30.15,North,355,0.0,1.0,48,0.00,,,0.00,Wunderground v.1.13,2013-05-16 00:43:00,
2013-05-15 20:48:00,73.5,53.2,30.15,North,355,0.0,1.0,49,0.00,,,0.00,Wunderground v.1.13,2013-05-16 00:48:00,
2013-05-15 20:53:00,73.3,53.5,30.15,North,355,0.0,0.0,50,0.00,,,0.00,Wunderground v.1.13,2013-05-16 00:53:00,
2013-05-15 20:58:00,73.0,53.8,30.15,North,355,0.0,0.0,51,0.00,,,0.00,Wunderground v.1.13,2013-05-16 00:58:00,
2013-05-15 21:04:00,72.8,53.6,30.15,North,355,0.0,0.0,51,0.00,,,0.00,Wunderground v.1.13,2013-05-16 01:04:00,
2013-05-15 21:09:00,72.5,53.9,30.15,North,355,0.0,0.0,52,0.00,,,0.00,Wunderground v.1.13,2013-05-16 01:09:00,
2013-05-15 21:14:00,72.2,54.1,30.15,North,355,0.0,0.0,53,0.00,,,0.00,Wunderground v.1.13,2013-05-16 01:14:00,
2013-05-15 21:19:00,72.0,53.9,30.16,North,355,0.0,0.0,53,0.00,,,0.00,Wunderground v.1.13,2013-05-16 01:19:00,
2013-05-15 21:24:00,71.8,54.3,30.16,North,355,0.0,0.0,54,0.00,,,0.00,Wunderground v.1.13,2013-05-16 01:24:00,
2013-05-15 21:29:00,71.6,54.1,30.16,North,355,0.0,0.0,54,0.00,,,0.00,Wunderground v.1.13,2013-05-16 01:29:00,
2013-05-15 21:34:00,71.4,54.4,30.16,North,355,0.0,0.0,55,0.00,,,0.00,Wunderground v.1.13,2013-05-16 01:34:00,
2013-05-15 21:39:00,71.1,54.6,30.16,North,355,0.0,2.0,56,0.00,,,0.00,Wunderground v.1.13,2013-05-16 01:39:00,
2013-05-15 21:44:00,70.9,54.4,30.16,North,355,0.0,0.0,56,0.00,,,0.00,Wunderground v.1.13,2013-05-16 01:44:00,
2013-05-15 21:49:00,70.7,54.2,30.16,North,355,0.0,0.0,56,0.00,,,0.00,Wunderground v.1.13,2013-05-16 01:49:00,
2013-05-15 21:54:00,70.6,54.6,30.16,North,355,0.0,0.0,57,0.00,,,0.00,Wunderground v.1.13,2013-05-16 01:54:00,
2013-05-15 21:59:00,70.3,54.8,30.16,North,355,0.0,0.0,58,0.00,,,0.00,Wunderground v.1.13,2013-05-16 01:59:00,
2013-05-15 22:05:00,70.0,55.0,30.17,North,355,0.0,0.0,59,0.00,,,0.00,Wunderground v.1.13,2013-05-16 02:05:00,
2013-05-15 22:10:00,69.6,54.6,30.17,North,355,0.0,0.0,59,0.00,,,0.00,Wunderground v.1.13,2013-05-16 02:10:00,
2013-05-15 22:15:00,69.4,54.4,30.17,North,355,0.0,0.0,59,0.00,,,0.00,Wunderground v.1.13,2013-05-16 02:15:00,
2013-05-15 22:20:00,69.2,54.7,30.17,North,355,0.0,0.0,60,0.00,,,0.00,Wunderground v.1.13,2013-05-16 02:20:00,
2013-05-15 22:25:00,69.1,54.2,30.17,North,355,0.0,0.0,59,0.00,,,0.00,Wunderground v.1.13,2013-05-16 02:25:00,
2013-05-15 22:30:00,68.9,54.4,30.17,North,355,0.0,0.0,60,0.00,,,0.00,Wunderground v.1.13,2013-05-16 02:30:00,
2013-05-15 22:35:00,68.7,54.3,30.17,North,355,0.0,0.0,60,0.00,,,0.00,Wunderground v.1.13,2013-05-16 02:35:00,
2013-05-15 22:40:00,68.5,54.5,30.18,North,355,0.0,0.0,61,0.00,,,0.00,Wunderground v.1.13,2013-05-16 02:40:00,
2013-05-15 22:45:00,68.3,54.8,30.18,North,355,0.0,0.0,62,0.00,,,0.00,Wunderground v.1.13,2013-05-16 02:45:00,
2013-05-15 22:50:00,68.1,54.6,30.17,North,355,0.0,0.0,62,0.00,,,0.00,Wunderground v.1.13,2013-05-16 02:50:00,
2013-05-15 22:55:00,67.9,54.8,30.17,North,355,0.0,0.0,63,0.00,,,0.00,Wunderground v.1.13,2013-05-16 02:55:00,
2013-05-15 23:01:00,67.7,54.6,30.18,North,355,0.0,0.0,63,0.00,,,0.00,Wunderground v.1.13,2013-05-16 03:01:00,
2013-05-15 23:06:00,67.7,55.1,30.18,North,355,0.0,0.0,64,0.00,,,0.00,Wunderground v.1.13,2013-05-16 03:06:00,
2013-05-15 23:11:00,67.6,55.0,30.18,North,355,0.0,0.0,64,0.00,,,0.00,Wunderground v.1.13,2013-05-16 03:11:00,
2013-05-15 23:16:00,67.4,55.2,30.18,North,355,0.0,0.0,65,0.00,,,0.00,Wunderground v.1.13,2013-05-16 03:16:00,
2013-05-15 23:21:00,67.1,55.4,30.18,North,355,0.0,0.0,66,0.00,,,0.00,Wunderground v.1.13,2013-05-16 03:21:00,
2013-05-15 23:26:00,66.9,55.2,30.18,North,355,0.0,0.0,66,0.00,,,0.00,Wunderground v.1.13,2013-05-16 03:26:00,
2013-05-15 23:32:00,66.7,55.0,30.18,North,355,0.0,0.0,66,0.00,,,0.00,Wunderground v.1.13,2013-05-16 03:32:00,
2013-05-15 23:37:00,66.8,55.1,30.17,North,355,0.0,0.0,66,0.00,,,0.00,Wunderground v.1.13,2013-05-16 03:37:00,
2013-05-15 23:42:00,66.9,55.2,30.17,North,355,0.0,0.0,66,0.00,,,0.00,Wunderground v.1.13,2013-05-16 03:42:00,
2013-05-15 23:47:00,66.9,55.2,30.17,North,355,0.0,0.0,66,0.00,,,0.00,Wunderground v.1.13,2013-05-16 03:47:00,
2013-05-15 23:53:00,66.8,55.1,30.17,North,355,0.0,0.0,66,0.00,,,0.00,Wunderground v.1.13,2013-05-16 03:53:00,
2013-05-15 23:58:00,66.8,55.5,30.17,North,355,0.0,0.0,67,0.00,,,0.00,Wunderground v.1.13,2013-05-16 03:58:00,